Location: Bremen
(53.0793°N, 8.8017°E)
Time: 01:33:00
(UTC+01:00)

deb Explorer IX - Pass Details

Date: 14 December 2021
Orbit: 544 x 1082 km, 38.8° (Epoch: 16 January)

Event Time Altitude Azimuth Distance (km) Brightness Sun altitude
Rises 08:38:01 0° 242° (WSW) 3,531 ? -0.1°
Reaches altitude 10° 08:41:31 10° 225° (SW) 2,477 ? 0.3°
Maximum altitude 08:45:20 18° 184° (S) 1,847 ? 0.7°
Drops below altitude 10° 08:48:49 10° 142° (SE) 2,224 ? 1.1°
Sets 08:51:45 0° 124° (ESE) 3,040 ? 1.4°
